Location: *
(43.2048°N, 0.1612°E)
Time: 18:03:35
(UTC+00:00)

Cosmos 2315 Rocket - Pass Details

Date: 30 September 2023
Orbit: 965 x 1002 km, 82.9° (Epoch: 05 December)

Event Time Altitude Azimuth Distance (km) Brightness Sun altitude
Rises 03:44:49 0° 349° (NNW) 3,730 7.2 -24.1°
Reaches altitude 10° 03:47:22 10° 346° (NNW) 2,779 6.4 -23.7°
Maximum altitude 03:53:40 63° 267° (W) 1,113 4.0 -22.6°
Drops below altitude 10° 03:59:55 10° 188° (S) 2,765 6.1 -21.5°
Sets 04:02:27 0° 185° (S) 3,709 6.8 -21.1°
